Showing default

FLOCK 4BE 22, 60494

Orbit data source: Space-Track

FLOCK 4BE 22, 60494 is a payload satellite owned by Planet (US) in SSO that was launched on Fri, 16 Aug 2024 UTC via an FALCON 9 launch vehicle from the Air Force Western Test Range (AFWTR). Payload-class satellites include a variety of spacecraft equipped with specific instruments for various scientific and technological missions. These include communications satellites like Starlink; space stations such as the ISS; scientific satellites like the Hubble; Earth observation satellites from companies like Planet Labs, Umbra, and HawkEye 360; GPS; miniature CubeSats for education and research; and military/defense satellites.

Loading next visibility...
Identifier
60494, 2024-149AC
Orbit
SSO
Country
Flag of USUS
Related business
Manufacturer
Planet
Mission
Operational Commercial Imaging
Bus & Motor
CUBESAT 3U, Unknown motor
Mass
5.7 kg wet, 5.7 kg dry
Launch date (UTC)
2024-08-16 (2 years ago)
Launch vehicle
FALCON 9
Launch site
Air Force Western Test Range (AFWTR)
Object type
Payload
Rocket body
Debris
Shape & HBR
Box + 2 Pan, 1.0 m
Radar Cross Section
0.072 m², Medium (>0.1 m² and < 1m²)

Expand to show TLE details & history
Last TLE update: 19 hours ago

TLE from 19 hours ago
0 FLOCK 4BE 22
1 60494U 24149AC  26264.97892881  .00027667  00000-0  59449-3 0  9997
2 60494  97.3681 349.6405 0002211 269.6310  90.4685 15.44646190117228
Epoch: 2026-09-21T23:29Z
TLE epoch observation values (Epoch: 2026-09-21T23:29:39.449Z)
Latitude
-0.00003°
Longitude
-3.62486°
Altitude
435.555 km
Speed
7.65 km/s
True Right ascension
23h 18m 33s
True Declination
0° 00' 00"
Sunlit
Object was in full shadow at epoch
Visualization orbit readout
Latitude
Unknown
Longitude
Unknown
Altitude
Unknown
Speed
Unknown
Apparent Right ascension
Unknown
Apparent Declination
Unknown
Sunlit
N/A
Visualization observer readout
Local Sidereal Time
11:58:26
Azimuth
Unknown
Elevation
Unknown
Doppler factor
Unknown
Orbital elements
Apogee altitude
430.854 km
Perigee altitude
427.844 km
Semi-major axis
6,807.486 km
Eccentricity
0.00022
Inclination
97.3681°
RAAN
349.6405°
Arg. of periapsis
269.631°
True anomaly
90.49384°
Mean anomaly
90.4685°
Eccentric anomaly
90.48117°
Mean motion
3.86423 °/min
Orbital period
93.16 mins
BSTAR
0.00059449
Loading maneuver chart data...
Computing Atmospheric mass density...

Documentation

Showing up to 5 results
|